sat.trackr.live / text

‹ back to catalog

STARLINK-4548

NORAD 53431 · 2022-097AV

PAYLOAD ACTIVE UNKNOWN

§ Identity

Operator
Country
US
Launch date
2022-08-10
Launch site
AFETR
Launch vehicle
Mass (kg)
RCS (m²)

Purposes: comms

External: N2YO · Heavens-Above · Gunter

§ Orbital elements

Epoch: 2026-09-20T03:06:45.800928Z

Period
93.78 min
Inclination
53.1613°
Eccentricity
0.0001009
Mean motion
15.35443914 rev/d
Perigee alt
458.9 km
Apogee alt
460.3 km
Semi-major
6,837.7 km
B*
-1.5741e-4
RAAN
295.4427°
Arg perigee
55.8361°
Mean anomaly
304.2737°
Rev number
22,835

§ Raw data

STARLINK-45481 53431U 22097AV  26263.12969677 -.00005875  00000+0 -15741-3 0  99992 53431  53.1613 295.4427 0001009  55.8361 304.2737 15.35443914228353

JSON: /api/v1/satellites/53431 · /tle

For live sub-satellite position, see the globe view (requires WebGL).

§ Visibility from observer

Set your observer location to see the next 7 days of passes ≥ 10°. The values pass through the URL so the page stays shareable.

No JS? Fill the form by hand. The geolocation button needs JavaScript.